User: anonymous
Location: Mentone
(34.5413°N, 85.5351°W)
Time: 14:14:16
(UTC-05:00)
Language:

Transit 2A Rocket - Orbit

View from above orbital plane
View from above orbital plane
View from above satellite
View from above satellite

Ground track
Ground track

The orbit data is extracted from the following two-line orbital elements,

1 00047U 60007C   14211.35927077  .00000238  00000-0  79955-4 0  2651
2 00047 066.6673 139.2451 0222827 074.3903 288.1671 14.41170222825306
Epoch (UTC): 30 July 2014 08:37:20
Eccentricity: 0.0222827
inclination: 66.6673°
perigee height: 596 km
apogee height: 913 km
right ascension of ascending node: 139.2451°
argument of perigee: 74.3903°
revolutions per day: 14.41170222
mean anomaly at epoch: 288.1671°
orbit number at epoch: 82530

The dashed part of the orbit path shows where the satellite is in the earth's shadow,  

DLR